Find Starlink 34136

NORAD ID: 64112 Int'l Des: 2025-110 Owner: SPXS Country: US Constellation: starlink operational
LEOCIRCULAR

Live-Position

3D-Globus wird geladen...

Über Starlink 34136

Beschreibung wird geladen...

Nächste Überflüge

Passes for default location (London). Set your location on the main map for personalized predictions.

Höhenverlauf

Loading altitude history...

Zweizeiliger Elementsatz

1 64112U 25110S 26134.25331648 .00006996 00000-0 23694-3 0 9998
2 64112 53.1599 82.0041 0001360 84.4729 275.6427 15.31708898 55921
Epoch: 14. Mai 2026 • Age: 7 hours

Aktueller Status

Höhe 471.9 km
Geschwindigkeit 7.63 km/s
Subsatellitenpunkt -1.55°S, 167.51°W
Startdatum 23. Mai 2025
Alter 0.9 years
Typ internet

Technische Details

Klassifizierung Payload
Masse 575.00 kg
Trockenmasse 530.00 kg
Gesamtmasse 575.00 kg
Länge 0.30 m
Durchmesser 4.10 m
Spannweite 29.00 m
Form Box + pan
Hersteller SPXS
Bus-Typ Starlink V2MO
Phasenstatus In Orbit
Besitzer/Staat SPXS/US

Most Searched